Weather History for Greensboro, NC

Change the Weather History Date:

Friday, December 20, 2013

  Actual Average Record
Temperature  
Mean Temperature 53 °F 40 °F  
Max Temperature 64 °F 49 °F 77 °F (1931)
Min Temperature 42 °F 31 °F 9 °F (2004)
Degree Days  
Heating Degree Days 12 25  
Month to date heating degree days 409 453  
Since 1 July heating degree days 1143 1133  
Cooling Degree Days 0 0  
Month to date cooling degree days 6 0  
Year to date cooling degree days 1387 1483  
Growing Degree Days 3 (Base 50)    
Moisture  
Dew Point 38 °F    
Average Humidity 60    
Maximum Humidity 77    
Minimum Humidity 42    
Precipitation  
Precipitation 0.00 in 0.09 in 1.55 in (1951)
Month to date precipitation 2.30 1.94  
Year to date precipitation 47.54 41.16  
Snow  
Snow 0.00 in 0.00 in 0.30 in (1985)
Month to date snowfall 0.0 0.3  
Since 1 July snowfall T 0.4  
Snow Depth 0.00 in    
Sea Level Pressure  
Sea Level Pressure 30.17 in    
Wind  
Wind Speed 11 mph (SW)    
Max Wind Speed 22 mph    
Max Gust Speed 26 mph    
Visibility 10 miles    
Events      
T = Trace of Precipitation, MM = Missing Value Source: NWS Daily Summary

Daily Weather History Graph

Daily Weather History Graph

Search for Another Location

Airport:

Trip Planner

Search our weather history database for the weather conditions in past years. The results will help you decide how hot, cold, wet, or windy it might be!

Date:

Astronomy

Dec. 20, 2013 Rise Set
Actual Time 7:26 AM EST 5:08 PM EST
Civil Twilight 6:57 AM EST 5:37 PM EST
Nautical Twilight 6:25 AM EST 6:09 PM EST
Astronomical Twilight 5:54 AM EST 6:40 PM EST
Moon 8:22 PM EST (12/20) 9:24 AM EST (12/20)
Length of Visible Light 10h 39m
Length of Day
9h 42m
Waning Gibbous, 90% of the Moon is Illuminated
Dec 20
Waning Gibbous
Dec 25
Last Quarter
Jan 1
New
Jan 7
First Quarter
Jan 15
Full

Hourly Weather History & Observations

Time (EST) Temp. Windchill Dew Point Humidity Pressure Visibility Wind Dir Wind Speed Gust Speed Precip Events Conditions
12:54 AM 46.0 °F 43.1 °F 25.0 °F 44% 30.19 in 10.0 mi SSW 5.8 mph - N/A   Overcast
1:54 AM 46.9 °F - 25.0 °F 42% 30.19 in 10.0 mi SW 9.2 mph - N/A   Mostly Cloudy
2:54 AM 46.0 °F 41.9 °F 26.1 °F 46% 30.20 in 10.0 mi SW 8.1 mph - N/A   Mostly Cloudy
3:54 AM 43.0 °F 39.5 °F 26.1 °F 51% 30.21 in 10.0 mi SW 5.8 mph - N/A   Mostly Cloudy
4:54 AM 42.1 °F 39.2 °F 27.0 °F 55% 30.20 in 10.0 mi SW 4.6 mph - N/A   Scattered Clouds
5:54 AM 42.1 °F 39.2 °F 28.0 °F 58% 30.20 in 10.0 mi SW 4.6 mph - N/A   Mostly Cloudy
6:54 AM 44.1 °F 39.5 °F 30.0 °F 58% 30.21 in 10.0 mi WSW 8.1 mph - N/A   Mostly Cloudy
7:50 AM 44.6 °F 40.7 °F 30.2 °F 57% 30.21 in 10.0 mi SSW 6.9 mph - N/A   Mostly Cloudy
7:54 AM 44.1 °F 40.1 °F 30.9 °F 60% 30.21 in 10.0 mi SSW 6.9 mph - N/A   Mostly Cloudy
8:01 AM 44.6 °F 40.7 °F 30.2 °F 57% 30.21 in 10.0 mi SW 6.9 mph - N/A   Mostly Cloudy
8:54 AM 48.9 °F - 35.1 °F 59% 30.21 in 10.0 mi SW 10.4 mph - N/A   Overcast
9:54 AM 53.1 °F - 41.0 °F 64% 30.22 in 10.0 mi SW 11.5 mph - N/A   Overcast
10:54 AM 55.9 °F - 44.1 °F 64% 30.21 in 10.0 mi SW 12.7 mph 17.3 mph N/A   Overcast
11:54 AM 60.1 °F - 46.9 °F 62% 30.18 in 10.0 mi WSW 18.4 mph 23.0 mph N/A   Overcast
12:54 PM 63.0 °F - 45.0 °F 52% 30.14 in 10.0 mi SSW 15.0 mph 21.9 mph N/A   Overcast
1:54 PM 63.0 °F - 39.9 °F 43% 30.12 in 10.0 mi SW 18.4 mph 25.3 mph N/A   Overcast
2:54 PM 62.1 °F - 42.1 °F 48% 30.11 in 10.0 mi SW 15.0 mph - N/A   Mostly Cloudy
3:54 PM 62.1 °F - 43.0 °F 50% 30.12 in 10.0 mi SW 9.2 mph - N/A   Mostly Cloudy
4:54 PM 60.1 °F - 39.9 °F 47% 30.13 in 10.0 mi SW 11.5 mph - N/A   Overcast
5:54 PM 57.9 °F - 39.0 °F 49% 30.13 in 10.0 mi SSW 10.4 mph - N/A   Mostly Cloudy
6:54 PM 55.9 °F - 42.1 °F 60% 30.14 in 10.0 mi SSW 8.1 mph - N/A   Mostly Cloudy
7:54 PM 55.9 °F - 44.1 °F 64% 30.14 in 10.0 mi SW 9.2 mph - N/A   Mostly Cloudy
8:54 PM 57.0 °F - 46.9 °F 69% 30.13 in 10.0 mi SW 11.5 mph - N/A   Mostly Cloudy
9:54 PM 57.0 °F - 48.9 °F 74% 30.14 in 10.0 mi SW 13.8 mph 20.7 mph N/A   Overcast
10:54 PM 57.0 °F - 50.0 °F 77% 30.14 in 10.0 mi SW 13.8 mph - N/A   Overcast
11:54 PM 55.0 °F - 48.9 °F 80% 30.12 in 10.0 mi SW 10.4 mph - N/A   Overcast